GW0759 Weather Reports


Display with metric or nautical units.
time (UTC)temp
F
wind
direction
speed
MPH
gust
MPH
rain 1hr
in
rain 24hr
in
rain mn
in
humidity
%
barometer
mb
20260906230055 99 126 6.0 13.0 0.00 0.00 0.00 39 1009.4
20260906224556 101 147 3.0 9.0 0.00 0.00 0.00 37 1009.5
20260906223059 102 169 5.0 9.0 0.00 0.00 0.00 35 1009.3
20260906221606 104 115 7.0 11.0 0.00 0.00 0.00 34 1009.5
20260906214554 102 90 5.0 9.0 0.00 0.00 0.00 35 1009.8
20260906213056 101 119 4.0 10.0 0.00 0.00 0.00 36 1010.0
20260906211605 104 168 4.0 14.0 0.00 0.00 0.00 33 1010.0
20260906210059 103 150 3.0 9.0 0.00 0.00 0.00 36 1010.2
20260906204558 102 160 8.0 11.0 0.00 0.00 0.00 37 1010.5
20260906203101 98 236 5.0 10.0 0.00 0.00 0.00 41 1010.6
20260906201606 102 194 2.0 12.0 0.00 0.00 0.00 37 1010.8
20260906200100 101 114 5.0 12.0 0.00 0.00 0.00 39 1010.9
20260906194617 101 338 2.0 9.0 0.00 0.00 0.00 38 1011.0
20260906193112 101 137 6.0 11.0 0.00 0.00 0.00 39 1011.1
20260906191604 99 96 4.0 10.0 0.00 0.00 0.00 42 1011.3
20260906190059 97 213 4.0 11.0 0.00 0.00 0.00 42 1011.5
20260906184557 100 100 5.0 10.0 0.00 0.00 0.00 41 1011.6
20260906183116 99 98 6.0 12.0 0.00 0.00 0.00 42 1012.0
20260906181629 96 5 1.0 6.0 0.00 0.00 0.00 45 1012.1
20260906180052 96 138 4.0 8.0 0.00 0.00 0.00 45 1012.3
20260906174556 97 103 3.0 8.0 0.00 0.00 0.00 45 1012.4
20260906173056 97 123 3.0 11.0 0.00 0.00 0.00 44 1012.8
20260906171607 95 101 2.0 9.0 0.00 0.00 0.00 48 1013.1
20260906170107 95 140 2.0 9.0 0.00 0.00 0.00 50 1013.3
20260906164603 95 110 2.0 11.0 0.00 0.00 0.00 48 1013.4
20260906163059 95 179 4.0 9.0 0.00 0.00 0.00 49 1013.5
20260906161553 91 208 3.0 8.0 0.00 0.00 0.00 56 1013.4
20260906160057 92 0 1.0 8.0 0.00 0.00 0.00 58 1013.4
20260906154550 89 170 1.0 6.0 0.00 0.00 0.00 63 1013.3
20260906153100 89 142 2.0 6.0 0.00 0.00 0.00 63 1013.3
20260906151606 87 180 2.0 6.0 0.00 0.00 0.00 67 1013.2
20260906144611 85 140 1.0 6.0 0.00 0.00 0.00 69 1013.1
20260906143107 84 134 1.0 5.0 0.00 0.00 0.00 73 1013.1
20260906141559 82 120 2.0 4.0 0.00 0.00 0.00 76 1013.1
20260906140049 80 0 1.0 5.0 0.00 0.00 0.00 80 1013.1
20260906134554 79 156 1.0 5.0 0.00 0.00 0.00 82 1012.9
20260906133106 78 132 2.0 4.0 0.00 0.00 0.00 83 1013.0
20260906131600 77 127 2.0 5.0 0.00 0.00 0.00 84 1012.7
20260906130107 76 144 2.0 5.0 0.00 0.00 0.00 85 1012.6
20260906124558 75 144 2.0 4.0 0.00 0.00 0.00 86 1012.6
20260906123056 75 144 1.0 4.0 0.00 0.00 0.00 86 1012.4
20260906121601 75 144 1.0 4.0 0.00 0.00 0.00 85 1012.3
20260906120058 75 144 2.0 4.0 0.00 0.00 0.00 85 1012.1
20260906114558 76 144 2.0 5.0 0.00 0.00 0.00 84 1012.1
20260906113108 76 144 1.0 4.0 0.00 0.00 0.00 84 1012.0
20260906111559 76 144 2.0 4.0 0.00 0.00 0.00 84 1011.8
20260906110100 76 144 2.0 4.0 0.00 0.00 0.00 84 1011.7
20260906104601 76 144 1.0 3.0 0.00 0.00 0.00 84 1011.7
20260906103055 75 144 0.0 3.0 0.00 0.00 0.00 84 1011.6
20260906101555 75 0 0.0 0.0 0.00 0.00 0.00 85 1011.5
20260906100056 76 0 0.0 0.0 0.00 0.00 0.00 83 1011.2
20260906094608 77 0 0.0 3.0 0.00 0.00 0.00 82 1011.1
20260906093130 76 144 1.0 4.0 0.00 0.00 0.00 83 1011.2
20260906091609 76 0 0.0 1.0 0.00 0.00 0.00 82 1010.9
20260906090059 77 0 0.0 3.0 0.00 0.00 0.00 81 1010.8
20260906084551 77 144 0.0 3.0 0.00 0.00 0.00 81 1010.9
20260906083058 77 0 0.0 2.0 0.00 0.00 0.00 80 1010.9
20260906081557 78 0 0.0 2.0 0.00 0.00 0.00 79 1011.0
20260906080059 78 144 0.0 3.0 0.00 0.00 0.00 79 1011.0
20260906074556 79 144 1.0 3.0 0.00 0.00 0.00 78 1011.1
20260906073057 79 148 2.0 7.0 0.00 0.00 0.00 77 1011.2
20260906071555 80 157 3.0 7.0 0.00 0.00 0.00 76 1011.4
20260906064557 80 165 2.0 6.0 0.00 0.00 0.00 75 1011.6
20260906063057 81 112 2.0 6.0 0.00 0.00 0.00 74 1011.8
20260906061554 82 150 2.0 6.0 0.00 0.00 0.00 73 1011.9
20260906060130 82 126 3.0 7.0 0.00 0.00 0.00 73 1011.9
20260906054602 81 128 2.0 4.0 0.00 0.00 0.00 73 1011.8
20260906053054 82 139 1.0 3.0 0.00 0.00 0.00 73 1011.6
20260906051601 82 139 1.0 3.0 0.00 0.00 0.00 73 1011.6
20260906050108 82 139 1.0 4.0 0.00 0.00 0.00 72 1011.7
20260906044602 82 139 2.0 4.0 0.00 0.00 0.00 71 1011.8
20260906043104 82 139 0.0 3.0 0.00 0.00 0.00 70 1011.5
20260906041601 83 139 2.0 4.0 0.00 0.00 0.00 69 1011.4
20260906040103 84 147 3.0 9.0 0.00 0.00 0.00 67 1011.6
20260906034553 84 161 2.0 7.0 0.00 0.00 0.00 67 1011.5
20260906033050 85 182 2.0 8.0 0.00 0.00 0.00 67 1011.6
20260906031558 85 105 3.0 7.0 0.00 0.00 0.00 67 1011.7
20260906030057 85 117 3.0 6.0 0.00 0.00 0.00 67 1011.6
20260906024601 85 134 3.0 8.0 0.00 0.00 0.00 66 1011.4
20260906023051 86 101 3.0 7.0 0.00 0.00 0.00 65 1011.0
20260906021552 86 118 2.0 7.0 0.00 0.00 0.00 63 1010.8
20260906020055 87 129 3.0 8.0 0.00 0.00 0.00 61 1010.7
20260906014627 88 146 2.0 8.0 0.00 0.00 0.00 60 1010.5
20260906013059 89 155 5.0 12.0 0.00 0.00 0.00 57 1010.4
20260906011603 90 78 3.0 7.0 0.00 0.00 0.00 51 1009.9
20260906010105 91 111 1.0 5.0 0.00 0.00 0.00 49 1009.6
20260906004613 92 115 2.0 8.0 0.00 0.00 0.00 47 1009.7
20260906003110 93 124 3.0 8.0 0.00 0.00 0.00 46 1009.7
20260906001555 94 123 3.0 10.0 0.00 0.00 0.00 45 1009.6
20260906000050 96 113 5.0 13.0 0.00 0.00 0.00 43 1009.6
20260905234610 101 113 2.0 8.0 0.00 0.00 0.00 36 1009.5
20260905233057 101 169 3.0 9.0 0.00 0.00 0.00 35 1009.4
20260905231600 100 80 4.0 10.0 0.00 0.00 0.00 36 1009.5